Garrison, ND

4:37 AM CST on January 21, 2017 (GMT -0600)
Garrison

Weather History for KN60 - November, 2012

Change the Weather History Date:

Wednesday, November 21, 2012

  Actual Average Record
Temperature  
Mean Temperature 42 °F -  
Max Temperature 51 °F - 55 °F (2001)
Min Temperature 32 °F - -13 °F (2013)
Degree Days  
Heating Degree Days 23    
Month to date heating degree days 709  
Cooling Degree Days 0    
Moisture  
Dew Point 33 °F    
Average Humidity 76    
Maximum Humidity 96    
Minimum Humidity 56    
Precipitation  
Precipitation 0.00 in - 0.02 in (2010)
Month to date precipitation 0.65  
Year to date precipitation 16.06  
Sea Level Pressure  
Sea Level Pressure 29.73 in    
Wind  
Wind Speed 4 mph (SE)    
Max Wind Speed 10 mph    
Max Gust Speed 14 mph    
T = Trace of Precipitation, MM = Missing Value Source: NWS Daily Summary

Daily Weather History Graph

Daily Weather History Graph

Search for Another Location

Airport or City:

Trip Planner

Search our weather history database for the weather conditions in past years. The results will help you decide how hot, cold, wet, or windy it might be!

Date:

Astronomy

Nov. 21, 2012 Rise Set
Actual Time 8:00 AM CST 5:02 PM CST
Civil Twilight 7:26 AM CST 5:36 PM CST
Nautical Twilight 6:48 AM CST 6:14 PM CST
Astronomical Twilight 6:11 AM CST 6:51 PM CST
Moon 1:43 PM CST 12:55 AM CST
Length of Visible Light 10h 10m
Length of Day
9h 02m
First Quarter, 62% of the Moon is Illuminated
Nov 21
First Quarter
Nov 28
Full
Dec 6
Last Quarter
Dec 13
New
Dec 19
First Quarter

Hourly Weather History & Observations

Time (CST) Temp. Windchill Dew Point Humidity Pressure Visibility Wind Dir Wind Speed Gust Speed Precip Events Conditions
12:52 AM 33.1 °F - 30.9 °F 92% 29.88 in - Calm Calm - N/A   Unknown
1:52 AM 34.0 °F 29.8 °F 32.0 °F 92% 29.88 in - SSE 4.6 mph - N/A   Unknown
2:52 AM 35.1 °F - 32.0 °F 89% 29.87 in - Calm Calm - N/A   Unknown
3:52 AM 35.1 °F 32.2 °F 32.0 °F 89% 29.85 in - ENE 3.5 mph - N/A   Unknown
4:52 AM 36.0 °F 33.3 °F 32.0 °F 86% 29.85 in - ENE 3.5 mph - N/A   Unknown
5:52 AM 33.1 °F 27.7 °F 30.0 °F 89% 29.83 in - SE 5.8 mph - N/A   Unknown
6:52 AM 33.1 °F 26.9 °F 30.9 °F 92% 29.81 in - SE 6.9 mph - N/A   Unknown
7:52 AM 34.0 °F 29.8 °F 30.9 °F 89% 29.81 in - ESE 4.6 mph - N/A   Unknown
8:52 AM 33.1 °F 26.9 °F 30.0 °F 89% 29.81 in - NNE 6.9 mph - N/A   Unknown
9:52 AM 37.0 °F - 33.1 °F 86% 29.79 in - Calm Calm - N/A   Unknown
10:52 AM 42.1 °F 40.2 °F 35.1 °F 76% 29.76 in - ESE 3.5 mph - N/A   Unknown
11:52 AM 44.1 °F 42.5 °F 34.0 °F 68% 29.74 in - SSE 3.5 mph - N/A   Unknown
12:52 PM 46.9 °F - 35.1 °F 63% 29.69 in - SE 5.8 mph - N/A   Unknown
1:52 PM 50.0 °F - 36.0 °F 59% 29.67 in - SSW 5.8 mph - N/A   Unknown
2:52 PM 50.0 °F - 37.0 °F 61% 29.62 in - South 6.9 mph - N/A   Unknown
3:52 PM 50.0 °F - 37.0 °F 61% 29.61 in - South 4.6 mph - N/A   Unknown
4:52 PM 46.9 °F - 36.0 °F 66% 29.61 in - Calm Calm - N/A   Unknown
5:52 PM 43.0 °F - 35.1 °F 74% 29.61 in - Calm Calm - N/A   Unknown
6:52 PM 39.0 °F - 33.1 °F 79% 29.62 in - Calm Calm - N/A   Unknown
7:52 PM 36.0 °F - 32.0 °F 86% 29.62 in - Calm Calm - N/A   Unknown
8:52 PM 35.1 °F 29.3 °F 32.0 °F 89% 29.64 in - NNW 6.9 mph - N/A   Unknown
9:52 PM 41.0 °F 32.8 °F 36.0 °F 82% 29.66 in - WNW 16.1 mph 20.7 mph N/A   Unknown
10:52 PM 36.0 °F 26.0 °F 33.1 °F 89% 29.67 in - NW 17.3 mph - N/A   Unknown
11:52 PM 34.0 °F 22.7 °F 32.0 °F 92% 29.73 in - NNW 19.6 mph 24.2 mph N/A   Unknown